Weather History for TNCM - July, 2013

Change the Weather History Date:

Tuesday, July 9, 2013

  Actual Average Record
Temperature  
Mean Temperature 82 °F -  
Max Temperature 87 °F 86 °F 89 °F (1998)
Min Temperature 78 °F 77 °F 75 °F (2010)
Cooling Degree Days 18    
Growing Degree Days 32 (Base 50)    
Moisture  
Dew Point 76 °F    
Average Humidity 78    
Maximum Humidity 89    
Minimum Humidity 62    
Precipitation  
Precipitation 0.16 in 0.11 in - ()
Sea Level Pressure  
Sea Level Pressure 30.06 in    
Wind  
Wind Speed 13 mph ()    
Max Wind Speed 23 mph    
Max Gust Speed 38 mph    
Visibility 7.5 miles    
Events Rain    
Averages and records for this station are not official NWS values.
T = Trace of Precipitation, MM = Missing Value Source: Averaged Metar Reports

Daily Weather History Graph

Daily Weather History Graph

Search for Another Location

Airport or City:

Trip Planner

Search our weather history database for the weather conditions in past years. The results will help you decide how hot, cold, wet, or windy it might be!

Date:

Astronomy

Jul. 09, 2013 Rise Set
Actual Time 5:43 AM AST 6:52 PM AST
Civil Twilight 5:19 AM AST 7:16 PM AST
Nautical Twilight 4:50 AM AST 7:44 PM AST
Astronomical Twilight 4:21 AM AST 8:13 PM AST
Moon 6:46 AM AST (7/9) 7:48 PM AST (7/9)
Length of Visible Light 13h 56m
Length of Day
13h 09m
New Moon, 2% of the Moon is Illuminated
Jul 9
New Moon
Jul 15
First Quarter
Jul 22
Full
Jul 29
Last Quarter
Aug 6
New

Hourly Weather History & Observations

Time (AST) Temp. Heat Index Dew Point Humidity Pressure Visibility Wind Dir Wind Speed Gust Speed Precip Events Conditions
12:00 AM 82.4 °F 89.5 °F 75.2 °F 79% 30.06 in 6.2 mi ENE 13.8 mph - N/A   Mostly Cloudy
1:00 AM 78.8 °F - 75.2 °F 89% 30.06 in 6.2 mi East 13.8 mph - N/A Rain Light Rain Showers
2:00 AM 80 °F - 75 °F 79% 30.06 in 16 mi East 11.5 mph - - Rain Light Rain Showers
2:00 AM 80.6 °F 86.2 °F 75.2 °F 84% 30.06 in 6.2 mi ENE 10.4 mph - N/A   Partly Cloudy
3:00 AM 80.6 °F 86.2 °F 75.2 °F 84% 30.04 in 6.2 mi ENE 12.7 mph - N/A   Mostly Cloudy
4:00 AM 80.6 °F 86.2 °F 75.2 °F 84% 30.04 in 6.2 mi East 12.7 mph - N/A   Scattered Clouds
5:00 AM 79 °F - 76 °F 87% 30.05 in 7 mi East 11.5 mph - - Rain Light Rain Showers
5:00 AM 78.8 °F - 75.2 °F 89% 30.04 in 6.2 mi East 11.5 mph - N/A Rain Light Rain Showers
6:00 AM 80.6 °F 86.2 °F 75.2 °F 84% 30.04 in 6.2 mi East 15.0 mph - N/A   Scattered Clouds
7:00 AM 82.4 °F 88.2 °F 73.4 °F 74% 30.06 in 6.2 mi East 15.0 mph - N/A   Partly Cloudy
8:00 AM 83 °F - 74 °F 69% 30.08 in 11 mi East 15.0 mph - -   Partly Cloudy
8:00 AM 84.2 °F 92.3 °F 75.2 °F 74% 30.06 in 6.2 mi East 13.8 mph - N/A   Scattered Clouds
9:00 AM 82.4 °F 89.5 °F 75.2 °F 79% 30.08 in 5.0 mi ENE 16.1 mph 31.1 mph N/A   Mostly Cloudy
10:00 AM 86.0 °F 95.1 °F 75.2 °F 70% 30.06 in 6.2 mi East 17.3 mph 29.9 mph N/A   Scattered Clouds
11:00 AM 87 °F - 76 °F 62% 30.08 in 16 mi East 18.4 mph - -   Scattered Clouds
11:00 AM 86.0 °F 95.1 °F 75.2 °F 70% 30.06 in 6.2 mi East 19.6 mph - N/A   Partly Cloudy
12:00 PM 86.0 °F 95.1 °F 75.2 °F 70% 30.06 in 6.2 mi East 16.1 mph 29.9 mph N/A   Mostly Cloudy
1:00 PM 86.0 °F 95.1 °F 75.2 °F 70% 30.06 in 6.2 mi East 18.4 mph 31.1 mph N/A   Mostly Cloudy
2:00 PM 85 °F - 77 °F 71% 30.06 in 12 mi East 19.6 mph - - Rain Light Rain Showers
2:00 PM 84.2 °F 94.1 °F 77.0 °F 79% 30.04 in 6.2 mi ENE 19.6 mph 35.7 mph N/A Rain Light Rain Showers
3:00 PM 86.0 °F 95.1 °F 75.2 °F 70% 30.04 in 6.2 mi East 21.9 mph 38.0 mph N/A   Mostly Cloudy
4:00 PM 86.0 °F 95.1 °F 75.2 °F 70% 30.04 in 6.2 mi East 23.0 mph - N/A   Scattered Clouds
5:00 PM 84.2 °F 92.3 °F 75.2 °F 74% 30.04 in 6.2 mi East 18.4 mph - N/A   Scattered Clouds
6:00 PM 84.2 °F 94.1 °F 77.0 °F 79% 30.04 in 6.2 mi ESE 17.3 mph 33.4 mph N/A   Scattered Clouds
7:00 PM 82.4 °F 90.9 °F 77.0 °F 84% 30.04 in 6.2 mi East 15.0 mph - N/A   Mostly Cloudy
8:00 PM 83 °F - 76 °F 75% 30.06 in 12 mi ESE 15.0 mph - - Rain Light Rain Showers
8:00 PM 82.4 °F 90.9 °F 77.0 °F 84% 30.04 in 6.2 mi ESE 15.0 mph - N/A Rain Light Rain Showers
9:00 PM 82.4 °F 90.9 °F 77.0 °F 84% 30.06 in 6.2 mi East 15.0 mph - N/A   Scattered Clouds
10:00 PM 82.4 °F 90.9 °F 77.0 °F 84% 30.06 in 6.2 mi East 16.1 mph - N/A   Scattered Clouds
11:00 PM 83 °F - 76 °F 75% 30.09 in 12 mi East 16.1 mph - -   Partly Cloudy
11:00 PM 82.4 °F 90.9 °F 77.0 °F 84% 30.06 in 6.2 mi East 16.1 mph - N/A   Scattered Clouds